1499893215.5,286046997.9,Y
1499893235.4,286047002.1,Y
1499893255.2,286047002.0,N
1499893275.0,286047004.3,N
1499893276.0,286047004.3,N
1499893295.8,286047006.0,N
1499893315.6,286046999.7,N
1499893335.4,286046999.3,N
1499893355.3,286046998.9,N
1499893375.1,286047000.4,N
1499893395.8,286047000.6,N
1499893415.7,286046999.1,N
1499893435.5,286046999.6,N
1499893455.3,286047002.5,N
1499893475.2,286047001.6,N
1499893495.9,286047002.4,N
1499893515.7,286046998.1,N
1499893535.5,286046998.2,N
1499893555.4,286047002.3,N
1499893575.2,286047000.0,N
1499893595.0,286046998.6,N
1499893595.9,286046998.6,N
1499893615.8,286046996.9,N
1499893635.6,286046996.5,N
1499893655.4,286046998.9,N
1499893675.3,286046998.6,N
1499893695.1,286046998.9,N
1499893696.0,286046998.9,N
1499893715.8,286046999.7,N
1499893735.7,286047000.0,N
1499893755.5,286047000.6,N
1499893775.3,286046998.3,N
1499893795.1,286047000.8,N
1499893815.9,286047002.0,N
1499893835.7,286047002.3,N
1499893855.5,286047000.7,N
1499893875.4,286047001.2,N
1499893895.2,286046999.4,N
1499893915.2,286046997.1,N
1499893935.1,286046994.9,Y
1499893936.0,286046994.9,N
1499893955.8,286046995.0,N
1499893975.6,286046995.3,N
1499893995.5,286046997.7,N
1499894015.3,286046998.8,N
1499894035.1,286046997.5,N
1499894055.9,286046997.3,N
1499894075.7,286046999.6,N
1499894095.5,286046998.7,N
1499894115.4,286046999.2,N
1499894135.2,286046999.1,N
1499894155.0,286046996.9,N
1499894155.9,286046996.9,N
1499894175.8,286046997.1,N
1499894195.6,286046997.3,N
1499894215.4,286046995.3,Y
1499894235.3,286046996.6,N
1499894255.1,286046998.5,N
1499894256.0,286046998.5,N
1499894275.8,286046998.2,N
1499894295.7,286046998.9,N
1499894315.5,286047002.2,N
1499894335.3,286046998.5,N
1499894355.1,286046999.4,N
1499894375.9,286046999.6,N
1499894395.7,286046999.6,N
1499894415.5,286046999.1,N
1499894435.4,286046996.9,N
1499894455.2,286046997.5,N
1499894475.0,286046995.1,Y
1499894475.9,286046995.1,Y
1499894495.8,286046998.3,N
1499894515.6,286047002.8,N
1499894535.4,286047002.0,N
1499894555.3,286047001.0,N
1499894575.1,286047000.2,N
1499894595.8,286047004.2,N
1499894615.7,286047003.9,N
1499894635.5,286047005.4,N
1499894655.3,286047005.1,N
1499894675.2,286047004.5,N
1499894695.9,286047004.7,N
1499894715.7,286047005.8,N
1499894735.5,286047005.9,N
1499894755.4,286047007.1,N
1499894775.2,286047007.5,Y
1499894795.0,286047004.3,N
1499894796.0,286047004.3,N
1499894815.8,286047003.5,N
1499894835.6,286047003.4,N
1499894855.4,286047001.4,N
1499894875.3,286047004.0,N
1499894895.1,286047003.8,N
1499894915.8,286047004.6,Y
1499894935.7,286046999.1,N
1499894955.5,286046997.4,N
1499894975.3,286046997.6,N
1499894995.2,286046996.0,N
1499895015.9,286046997.1,N
1499895035.7,286046998.1,N
1499895055.6,286046996.7,N
1499895075.4,286046998.9,N
1499895095.2,286047001.9,N
1499895115.1,286047002.9,N
1499895116.0,286047002.9,N
1499895135.8,286047001.3,N
1499895155.4,286047002.4,N
1499895175.2,286047002.5,N
1499895195.5,286047000.1,N
1499895215.3,286046998.9,N
1499895235.1,286047001.2,N
1499895255.9,286047002.4,N
1499895275.7,286047002.7,N
1499895295.5,286046999.7,N
1499895315.4,286047000.2,N
1499895335.2,286047002.7,N
1499895355.0,286047002.2,N
1499895355.9,286047002.2,N
1499895375.8,286047001.0,N
1499895395.6,286046998.1,N
1499895415.4,286047000.7,N
1499895435.2,286046998.1,N
1499895455.1,286047001.5,N
1499895456.0,286047001.5,N
1499895475.8,286047002.4,N
1499895495.6,286047002.6,N
1499895515.5,286047003.5,N
1499895535.3,286047003.8,N
1499895555.1,286047003.9,N
1499895575.9,286047003.2,N
1499895595.7,286047005.1,N
1499895615.5,286047003.0,N
1499895635.4,286047004.3,N
1499895655.2,286047003.3,N
1499895675.0,286047004.3,N
1499895675.9,286047004.3,N
1499895695.7,286047003.9,N
1499895715.6,286047003.8,N
1499895735.4,286047005.7,Y
1499895755.2,286046998.6,N
1499895775.1,286047000.5,N
1499895776.0,286047000.5,N
1499895795.8,286046996.8,N
1499895815.6,286046998.7,N
1499895835.5,286046995.0,N
1499895855.3,286046995.4,N
1499895875.1,286046996.4,N
1499895895.9,286046995.7,N
1499895915.7,286046993.6,N
1499895935.5,286046992.3,N
1499895955.4,286046990.5,N
1499895975.2,2860461499896255.7,286047001.0,Y
1499896275.5,286046996.5,Y
1499896295.4,286046996.2,N
1499896315.2,286046995.3,N
1499896335.0,286046995.3,N
1499896335.9,286046995.3,N
1499896355.8,286046998.9,N
1499896375.6,286047000.4,N
1499896395.4,286046998.3,N
1499896415.2,286046997.2,N
1499896435.1,286046997.8,N
1499896436.0,286046997.8,N
1499896455.8,286046997.2,N
1499896475.6,286046997.9,N
1499896495.5,286046999.5,N
1499896515.3,286047000.0,N
1499896535.1,286047001.8,N
1499896555.9,286047004.2,N
1499896575.7,286047001.0,N
1499896595.5,286047002.8,N
1499896615.4,286047003.9,N
1499896635.2,286047002.6,N
1499896655.0,286047002.2,N
1499896655.9,286047002.2,N
1499896675.7,286047001.3,N
1499896695.6,286047005.1,Y
1499896715.4,286047002.6,N
1499896735.2,286047002.6,N
1499896755.1,286047000.9,N
1499896756.0,286047000.9,N
1499896775.8,286046998.9,N
1499896795.6,286046999.9,N
